sat.trackr.live / text

‹ back to catalog

STARLINK-3572

NORAD 51879 · 2022-022AD

PAYLOAD ACTIVE UNKNOWN

§ Identity

Operator
Country
US
Launch date
2022-03-03
Launch site
AFETR
Launch vehicle
Mass (kg)
RCS (m²)

Purposes: comms

External: N2YO · Heavens-Above · Gunter

§ Orbital elements

Epoch: 2026-09-19T07:19:21.663840Z

Period
93.85 min
Inclination
53.1605°
Eccentricity
0.0001491
Mean motion
15.34390173 rev/d
Perigee alt
461.7 km
Apogee alt
463.8 km
Semi-major
6,840.9 km
B*
2.1544e-5
RAAN
194.9531°
Arg perigee
90.0266°
Mean anomaly
270.0908°
Rev number
25,268

§ Raw data

STARLINK-35721 51879U 22022AD  26262.30511185  .00000351  00000+0  21544-4 0  99982 51879  53.1605 194.9531 0001491  90.0266 270.0908 15.34390173252687

JSON: /api/v1/satellites/51879 · /tle

For live sub-satellite position, see the globe view (requires WebGL).

§ Visibility from observer

Set your observer location to see the next 7 days of passes ≥ 10°. The values pass through the URL so the page stays shareable.

No JS? Fill the form by hand. The geolocation button needs JavaScript.